weather.gov     
National Weather Service

Regional Weather Roundup
NWS Homepage
This page is being discontinued on March 12, 2014.
The same data is available at this site. Please update your bookmarks.
Thank you, and we apologize for the inconvenience.
Please send an email to SR-SRH.Webmaster@noaa.gov with any concerns.


Current Version
Previous Version:    01  02  03  04  05  06  07  08  09  10  11  12  13  14  15  16  17  18  19  20  21  22  23  24  25  26  
[Printable]
438
ASUS41 KBTV 251910
RWRBTV
VERMONT REGIONAL WEATHER ROUNDUP
NATIONAL WEATHER SERVICE BURLINGTON VT
300 PM EDT SAT OCT 25 2014

NOTE: "FAIR" INDICATES FEW OR NO CLOUDS BELOW 12,000 FEET WITH NO
SIGNIFICANT WEATHER AND/OR OBSTRUCTIONS TO VISIBILITY.

* THESE REPORTS ARE NOT UNDER NWS QUALITY CONTROL AND/OR DO NOT
  REPORT WEATHER SUCH AS PRECIPITATION AND FOG.

VTZ001>019-252000-
_____VERMONT_____


CITY           SKY/WX    TMP DP  RH WIND       PRES   REMARKS
BURLINGTON     MOCLDY    58  42  55 S12       29.59F
MONTPELIER     MOCLDY    57  40  52 S5        29.61F
MORRISVILLE    PTCLDY    60  40  47 S7        29.58F
ST. JOHNSBURY*   N/A     58  39  49 MISG      29.56F
LYNDONVILLE*   FAIR      58  37  46 CALM      29.59F
MIDDLEBURY*    FAIR      58  42  54 SW9       29.61S
RUTLAND*       CLEAR     57  41  54 W9        29.61F
SPRINGFIELD    MOCLDY    61  41  47 VRB3      29.60F
HIGHGATE*      CLOUDY    55  42  60 S6        29.58S
NEWPORT*       FAIR      57  42  57 SW7       29.57F
BENNINGTON     PTCLDY    58  44  60 W7        29.64F
SUTTON*          N/A     55 N/A N/A MISG        N/A

_____LAKE CHAMPLAIN_____


CITY           SKY/WX    TMP DP  RH WIND       PRES   REMARKS
COLCHESTER RF*   N/A     54  46  76 SW20        N/A
DIAMOND ISL*     N/A     55  46  71 SW9         N/A

$$

NYZ007-026>031-035-052-083-252000-
_____NORTHERN NEW YORK_____


CITY           SKY/WX    TMP DP  RH WIND       PRES   REMARKS
PLATTSBURGH    CLOUDY    54  45  71 SE10      29.58F
SARANAC LAKE   CLOUDY    53  45  74 SW9       29.57F
MASSENA        LGT RAIN  57  48  72 SW9       29.54F
OGDENSBURG*    LGT RAIN  57  52  82 SW9       29.53F
POTSDAM*       LGT RAIN  57  52  82 SW12      29.54F
WATERTOWN      LGT RAIN  59  46  62 SW8       29.55F
FT DRUM        LGT RAIN  58  47  67 SW10      29.55F
ALBANY         MOCLDY    61  46  57 S7        29.64F
GLENS FALLS    MOCLDY    60  46  59 SW10      29.61F

$$
NHZ002-005-011-252000-
_____NEW HAMPSHIRE_____


CITY           SKY/WX    TMP DP  RH WIND       PRES   REMARKS
LEBANON        PTCLDY    62  39  42 W12       29.58F
KEENE          PTCLDY    63  37  39 SW8       29.63S
MT WASHINGTON  MOCLDY    36  14  41 NW18        N/A
PLYMOUTH       FAIR      62  44  51 NW6       29.58F
WHITEFIELD     CLOUDY    57  38  48 S8        29.59F

$$

_____REGIONAL QUEBEC LOCATIONS_____


CITY           SKY/WX    TMP DP  RH WIND       PRES   REMARKS
MONTREAL       CLOUDY    55  43  62 S6        29.53F
QUEBEC CITY    MOCLDY    48  39  71 W3        29.56F
SHERBROOKE     CLEAR     57  41  54 SW10      29.56F

_____REGIONAL ONTARIO LOCATIONS_____


CITY           SKY/WX    TMP DP  RH WIND       PRES   REMARKS
OTTAWA         LGT RAIN  54  52  94 S7        29.49F FOG

______KEY______
VSB  - VISIBILITY IN MILES
WCI  - WIND CHILL INDEX
HX   - HEAT INDEX
$$
NNNN




U.S. Dept. of Commerce
NOAA National Weather Service
1325 East West Highway
Silver Spring, MD 20910
E-mail: w-nws.webmaster@noaa.gov
Page last modified: May 16, 2007
NATIONAL WEATHER SERVICE: for Safety, for Work, for Fun - FOR LIFE